TimeCDT,TemperatureF,Dew PointF,Humidity,Sea Level PressureIn,VisibilityMPH,Wind Direction,Wind SpeedMPH,Gust SpeedMPH,PrecipitationIn,Events,Conditions,WindDirDegrees,DateUTC
12:56 AM,63.0,55.9,78,30.04,10.0,East,5.8,-,N/A,,Overcast,80,2013-09-18 05:56:00
1:56 AM,63.0,55.9,78,30.04,10.0,East,5.8,-,N/A,,Overcast,90,2013-09-18 06:56:00
2:56 AM,62.1,55.9,80,30.02,10.0,East,4.6,-,N/A,,Overcast,100,2013-09-18 07:56:00
3:19 AM,62.6,55.4,77,30.03,10.0,East,4.6,-,N/A,,Overcast,100,2013-09-18 08:19:00
3:39 AM,62.6,55.4,77,30.02,10.0,East,5.8,-,N/A,,Overcast,100,2013-09-18 08:39:00
3:56 AM,63.0,55.9,78,30.00,10.0,ESE,5.8,-,N/A,,Overcast,120,2013-09-18 08:56:00
4:56 AM,63.0,55.9,78,29.98,10.0,East,4.6,-,N/A,,Overcast,100,2013-09-18 09:56:00
5:56 AM,64.0,55.9,75,29.97,10.0,SE,3.5,-,N/A,,Overcast,130,2013-09-18 10:56:00
6:56 AM,64.9,57.0,75,29.98,10.0,SSE,4.6,-,N/A,,Overcast,160,2013-09-18 11:56:00
7:48 AM,64.4,57.2,77,29.99,9.0,SE,5.8,-,N/A,,Overcast,140,2013-09-18 12:48:00
7:56 AM,64.9,57.0,75,29.97,9.0,SSE,6.9,-,N/A,,Mostly Cloudy,150,2013-09-18 12:56:00
8:56 AM,66.9,57.9,73,29.96,9.0,ESE,5.8,-,N/A,,Mostly Cloudy,110,2013-09-18 13:56:00
9:56 AM,70.0,61.0,73,29.95,10.0,ESE,5.8,-,N/A,,Clear,110,2013-09-18 14:56:00
10:47 AM,71.6,62.6,73,29.96,9.0,South,13.8,17.3,N/A,,Mostly Cloudy,180,2013-09-18 15:47:00
10:56 AM,73.9,63.0,68,29.94,9.0,SSW,9.2,18.4,N/A,,Mostly Cloudy,200,2013-09-18 15:56:00
11:56 AM,72.0,63.0,73,29.93,9.0,South,9.2,-,N/A,,Scattered Clouds,190,2013-09-18 16:56:00
12:56 PM,73.9,64.9,73,29.90,10.0,South,6.9,-,N/A,,Scattered Clouds,170,2013-09-18 17:56:00
1:56 PM,73.9,64.9,73,29.88,10.0,SSW,8.1,-,N/A,,Partly Cloudy,210,2013-09-18 18:56:00
2:56 PM,75.9,64.9,69,29.86,10.0,South,8.1,-,N/A,,Clear,180,2013-09-18 19:56:00
3:56 PM,79.0,64.9,62,29.84,10.0,SSW,6.9,-,N/A,,Clear,200,2013-09-18 20:56:00
4:56 PM,79.0,64.0,60,29.83,10.0,South,10.4,-,N/A,,Clear,180,2013-09-18 21:56:00
5:56 PM,79.0,66.0,64,29.83,10.0,South,6.9,-,N/A,,Clear,170,2013-09-18 22:56:00
6:56 PM,75.9,66.9,74,29.83,10.0,SE,3.5,-,N/A,,Clear,130,2013-09-18 23:56:00
7:56 PM,71.1,66.9,87,29.84,9.0,ESE,5.8,-,N/A,,Clear,110,2013-09-19 00:56:00
8:56 PM,72.0,66.9,84,29.85,7.0,ESE,8.1,-,N/A,,Clear,110,2013-09-19 01:56:00
9:56 PM,72.0,68.0,87,29.84,7.0,ESE,3.5,-,N/A,,Partly Cloudy,120,2013-09-19 02:56:00
10:56 PM,75.0,69.1,82,29.84,9.0,South,4.6,-,N/A,,Partly Cloudy,170,2013-09-19 03:56:00
11:56 PM,72.0,68.0,87,29.83,7.0,ENE,4.6,-,N/A,,Clear,70,2013-09-19 04:56:00